Vorticity
32 15 16 11 24 12 14 23 18 16 3 6 3 8 6 4 -10 13 -17 13 30 18 11 14 8 8 8
19 30 28 21 14 13 54 -1 33 28 39 9 3 4 6 4 3 17 -14 -14 -24 -34 -35 -14 4 -9 -8
46 23 26 35 1 -3 -2 52 1 -0 4 18 16 9 9 6 -2 14 6 13 14 18 16 6 11 7 -15
26 34 36 31 39 -7 -10 11 19 25 8 14 20 21 13 10 5 3 10 12 5 7 8 -1 10 13 6
21 24 18 26 23 35 10 11 8 11 28 19 17 21 24 20 28 26 21 17 19 19 24 26 13 6 6
12 18 17 8 19 15 5 17 22 9 9 12 17 16 12 12 6 8 16 12 13 14 15 19 21 15 18
22 10 14 26 14 11 28 15 12 5 23 21 10 8 1 1 6 4 7 14 12 12 14 14 12 14 18
9 11 4 6 5 14 18 17 17 23 25 19 13 11 13 13 10 9 2 27 13 22 10 3 23 9 9
19 18 16 14 6 4 5 6 7 10 11 9 10 6 6 9 12 10 1 22 19 -6 48 7 18 5 4
17 22 12 11 10 10 12 16 18 16 14 17 16 17 15 17 18 12 -5 11 34 22 7 -0 3 7 9
28 32 19 15 13 14 17 12 14 19 22 21 13 15 25 23 23 19 19 19 -25 13 6 2 10 9 4
6 14 26 32 25 6 9 4 13 7 7 12 11 13 13 20 22 18 17 19 22 22 12 19 2 23 10
5 3 6 -1 19 38 43 42 19 -8 8 12 7 17 11 6 8 10 15 19 10 7 18 19 9 24 23
10 6 3 5 4 7 9 8 -1 12 24 40 55 51 77 63 31 42 31 13 0 29 29 14 12 12 9
5 8 9 6 3 4 6 6 8 7 7 8 7 3 -2 1 2 1 -2 11 32 13 10 10 8 7 6
5 5 7 8 7 6 5 4 4 5 6 5 6 6 7 8 8 8 8 8 9 9 10 10 8 5 4
3 7 6 8 9 7 6 6 6 5 3 3 4 4 3 4 4 3 4 4 4 5 7 7 4 3 7
Height
5539 5548 5557 5568 5578 5584 5592 5599 5607 5614 5622 5626 5631 5639 5645 5646 5653 5661 5668 5670 5670 5673 5676 5679 5683 5686 5690
5517 5527 5537 5552 5560 5565 5573 5582 5589 5597 5603 5609 5614 5622 5630 5634 5637 5643 5649 5657 5658 5660 5661 5670 5672 5673 5675
5507 5514 5524 5536 5544 5551 5556 5563 5571 5582 5585 5590 5597 5602 5608 5615 5621 5628 5634 5640 5645 5647 5648 5653 5657 5662 5665
5505 5510 5517 5525 5531 5539 5545 5548 5554 5560 5569 5576 5583 5589 5594 5599 5605 5611 5616 5620 5624 5629 5635 5641 5645 5647 5648
5505 5507 5511 5515 5520 5528 5533 5537 5541 5547 5555 5562 5569 5574 5580 5583 5589 5594 5597 5601 5607 5612 5617 5622 5627 5630 5633
5504 5505 5507 5510 5513 5518 5522 5527 5535 5538 5540 5547 5552 5560 5564 5569 5573 5577 5582 5586 5590 5595 5599 5603 5608 5613 5617
5503 5504 5505 5507 5509 5512 5514 5517 5522 5526 5529 5536 5539 5544 5547 5552 5558 5562 5566 5570 5574 5579 5584 5588 5591 5594 5600
5500 5500 5500 5501 5503 5504 5506 5509 5512 5516 5518 5523 5526 5530 5532 5539 5543 5547 5551 5555 5558 5562 5569 5574 5576 5578 5582
5496 5495 5494 5495 5496 5498 5500 5502 5504 5506 5509 5512 5515 5517 5519 5524 5528 5531 5536 5540 5544 5547 5553 5560 5561 5565 5566
5494 5491 5490 5490 5489 5490 5493 5494 5495 5497 5500 5502 5504 5505 5506 5509 5512 5515 5519 5526 5530 5533 5539 5545 5548 5551 5552
5491 5488 5487 5485 5484 5484 5485 5486 5487 5488 5490 5490 5493 5495 5494 5497 5499 5502 5506 5512 5516 5522 5526 5530 5534 5537 5540
5489 5486 5482 5481 5480 5480 5480 5480 5481 5481 5482 5483 5484 5485 5486 5488 5490 5493 5495 5499 5504 5509 5514 5518 5522 5524 5526
5487 5483 5481 5479 5476 5475 5474 5474 5475 5474 5474 5475 5476 5477 5478 5480 5482 5484 5487 5490 5494 5498 5502 5505 5509 5512 5513
5484 5480 5477 5475 5474 5472 5471 5469 5468 5467 5466 5466 5466 5468 5468 5469 5473 5473 5477 5479 5483 5487 5491 5494 5497 5500 5503
5476 5474 5473 5471 5468 5467 5466 5464 5464 5464 5463 5463 5462 5462 5463 5464 5466 5468 5469 5470 5474 5479 5482 5484 5487 5489 5492
5466 5464 5463 5464 5463 5462 5459 5457 5457 5457 5457 5457 5457 5457 5458 5459 5460 5462 5463 5465 5468 5470 5472 5474 5476 5478 5480
5456 5454 5453 5452 5451 5451 5451 5451 5450 5448 5448 5448 5449 5449 5450 5451 5452 5453 5455 5456 5457 5459 5461 5462 5463 5464 5466